Showing default

QUBE, 60476

Orbit data source: Space-Track

QUBE, 60476 is a payload satellite owned by ZfT (DE) in SSO that was launched on Fri, 16 Aug 2024 UTC via an FALCON 9 launch vehicle from the Air Force Western Test Range (AFWTR). Payload-class satellites include a variety of spacecraft equipped with specific instruments for various scientific and technological missions. These include communications satellites like Starlink; space stations such as the ISS; scientific satellites like the Hubble; Earth observation satellites from companies like Planet Labs, Umbra, and HawkEye 360; GPS; miniature CubeSats for education and research; and military/defense satellites.

Loading next visibility...
Identifier
60476, 2024-149J
Orbit
SSO
Country
Flag of DEDE / GER
Related business
Manufacturer
ZfT
Mission
Operational Commercial Communications
Bus & Motor
CUBESAT 3U, Unknown motor
Mass
4 kg wet, 4 kg dry
Launch date (UTC)
2024-08-16 (2 years ago)
Launch vehicle
FALCON 9
Launch site
Air Force Western Test Range (AFWTR)
Object type
Payload
Rocket body
Debris
Shape & HBR
Box, 1.0 m
Radar Cross Section
0.035 m², Medium (>0.1 m² and < 1m²)

Expand to show TLE details & history
Last TLE update: 6 hours ago

TLE from 6 hours ago
0 QUBE
1 60476U 24149J   26221.81043328  .00019891  00000-0  35979-3 0  9999
2 60476  97.3758 309.3698 0002587  68.8943 291.2585 15.49715097110767
Epoch: 2026-08-09T19:27Z
TLE epoch observation values (Epoch: 2026-08-09T19:27:01.435Z)
Latitude
0.00002°
Longitude
59.31174°
Altitude
420.053 km
Speed
7.659 km/s
True Right ascension
20h 37m 28s
True Declination
0° 00' 00"
Sunlit
Object was in full shadow at epoch
Visualization orbit readout
Latitude
Unknown
Longitude
Unknown
Altitude
Unknown
Speed
Unknown
Apparent Right ascension
Unknown
Apparent Declination
Unknown
Sunlit
N/A
Visualization observer readout
Local Sidereal Time
15:35:23
Azimuth
Unknown
Elevation
Unknown
Doppler factor
Unknown
Orbital elements
Apogee altitude
416.241 km
Perigee altitude
412.727 km
Semi-major axis
6,792.621 km
Eccentricity
0.00026
Inclination
97.3758°
RAAN
309.3698°
Arg. of periapsis
68.8943°
True anomaly
291.23087°
Mean anomaly
291.2585°
Eccentric anomaly
291.24468°
Mean motion
3.87692 °/min
Orbital period
92.86 mins
BSTAR
0.00035979
Loading maneuver chart data...
Computing Atmospheric mass density...
Loading historical data...
Loading historical data...
Loading historical data...
Loading historical data...
Loading historical data...
Loading historical data...
Loading historical data...

Documentation

Showing up to 5 results
|